CZ-6A DEB, 54437

Orbit data source: Space-Track

CZ-6A DEB, 54437 is space debris in SSO originally from a launch on Fri, 11 Nov 2022 UTC launched from the Taiyaun Space Center, China (TSC). Debris objects in space refer to the collection of defunct objects orbiting the Earth. Examples of debris include non-operational satellites, rocket bodies, and fragments generated from explosions, collisions, or faulty payload assembly.

Loading next visibility...
Identifier
54437, 2022-151FM
Orbit
SSO
Country
Flag of CNCN / PRC
Related business
Manufacturer
SAST
Mission
Spacecraft
Bus & Motor
Unknown
Mass
Unknown
Launch date (UTC)
2022-11-11 (3 years ago)
Launch vehicle
Unknown
Launch site
Taiyaun Space Center, China (TSC)
Object type
Payload
Rocket body
Debris
Shape & HBR
Unknown shape, 0.1 m
Radar Cross Section
Small (<0.1 m²)

Expand to show TLE details & history
Last TLE update: 17 hours ago

TLE from 17 hours ago
0 CZ-6A DEB
1 54437U 22151FM  25351.69605475  .00006233  00000-0  12273-2 0  9993
2 54437  98.6398  41.5578 0095973 131.7072 229.2388 14.60006879163445
Epoch: 2025-12-17T16:42Z
TLE epoch observation values (Epoch: 2025-12-17T16:42:19.130Z)
Latitude
0.00004°
Longitude
64.41587°
Altitude
740.813 km
Speed
7.461 km/s
True Right ascension
02h 46m 13s
True Declination
0° 00' 00"
Sunlit
Object was in full shadow at epoch
Visualization orbit readout
Latitude
Unknown
Longitude
Unknown
Altitude
Unknown
Speed
Unknown
Apparent Right ascension
Unknown
Apparent Declination
Unknown
Sunlit
N/A
Visualization observer readout
Local Sidereal Time
08:16:14
Azimuth
Unknown
Elevation
Unknown
Doppler factor
Unknown
Orbital elements
Apogee altitude
758.091 km
Perigee altitude
622.416 km
Semi-major axis
7,068.39 km
Eccentricity
0.0096
Inclination
98.6398°
RAAN
41.5578°
Arg. of periapsis
131.7072°
True anomaly
228.4123°
Mean anomaly
229.2388°
Eccentric anomaly
228.8249°
Mean motion
3.65227 °/min
Orbital period
98.57 mins
BSTAR
0.0012273
Loading maneuver chart data...
Computing Atmospheric mass density...
Loading historical data...
Loading historical data...
Loading historical data...
Loading historical data...
Loading historical data...
Loading historical data...
Loading historical data...

Documentation

Showing up to 5 results
|